Time,TemperatureF,DewpointF,PressureIn,WindDirection,WindDirectionDegrees,WindSpeedMPH,WindSpeedGustMPH,Humidity,HourlyPrecipIn,Conditions,Clouds,dailyrainin,SoftwareType,DateUTC
2013-07-26 00:04:00,67.8,61.4,30.06,SSE,158,0.0,0.0,80,0.00,,SKC,0.00,VWS V12.07,2013-07-26 05:04:00,
2013-07-26 00:09:00,67.8,61.4,30.06,SSE,158,0.0,0.0,80,0.00,,SKC,0.00,VWS V12.07,2013-07-26 05:09:00,
2013-07-26 00:17:00,67.8,61.4,30.06,SSE,158,0.0,0.0,80,0.00,,SKC,0.00,VWS V12.07,2013-07-26 05:17:00,
2013-07-26 00:24:00,67.7,61.3,30.05,SSE,158,0.0,0.0,80,0.00,,SKC,0.00,VWS V12.07,2013-07-26 05:24:00,
2013-07-26 00:32:00,67.7,61.3,30.05,SSE,158,0.0,0.0,80,0.00,,SKC,0.00,VWS V12.07,2013-07-26 05:32:00,
2013-07-26 00:39:00,67.5,61.1,30.04,SSE,158,0.0,0.0,80,0.00,,SKC,0.00,VWS V12.07,2013-07-26 05:39:00,
2013-07-26 00:45:00,67.4,61.0,30.04,SE,134,0.0,0.0,80,0.00,,SKC,0.00,VWS V12.07,2013-07-26 05:45:00,
2013-07-26 00:52:00,67.7,61.3,30.04,WSW,256,0.0,0.0,80,0.00,,SKC,0.00,VWS V12.07,2013-07-26 05:52:00,
2013-07-26 00:59:00,67.7,61.0,30.04,South,179,0.0,0.0,79,0.00,,SKC,0.00,VWS V12.07,2013-07-26 05:59:00,
2013-07-26 01:05:00,67.8,61.1,30.04,South,179,0.0,0.0,79,0.00,,SKC,0.00,VWS V12.07,2013-07-26 06:05:00,
2013-07-26 01:14:00,67.9,61.2,30.04,South,177,0.0,0.0,79,0.00,,SKC,0.00,VWS V12.07,2013-07-26 06:14:00,
2013-07-26 01:20:00,67.9,61.2,30.04,SW,235,0.0,1.0,79,0.00,,SKC,0.00,VWS V12.07,2013-07-26 06:20:00,
2013-07-26 01:29:00,67.9,61.2,30.04,SW,235,0.0,1.0,79,0.00,,SKC,0.00,VWS V12.07,2013-07-26 06:29:00,
2013-07-26 01:35:00,68.0,61.2,30.04,SW,236,0.0,0.0,79,0.00,,SKC,0.00,VWS V12.07,2013-07-26 06:35:00,
2013-07-26 01:42:00,68.0,60.9,30.04,SW,235,0.0,0.0,78,0.00,,SKC,0.00,VWS V12.07,2013-07-26 06:42:00,
2013-07-26 01:48:00,68.1,61.0,30.04,SE,141,0.0,1.0,78,0.00,,SKC,0.00,VWS V12.07,2013-07-26 06:48:00,
2013-07-26 01:53:00,68.2,61.1,30.04,SSE,148,0.0,1.0,78,0.00,,SKC,0.00,VWS V12.07,2013-07-26 06:53:00,
2013-07-26 01:58:00,68.3,61.2,30.04,SSE,148,0.0,1.0,78,0.00,,SKC,0.00,VWS V12.07,2013-07-26 06:58:00,
2013-07-26 02:04:00,68.3,61.2,30.03,SSE,148,0.0,0.0,78,0.00,,SKC,0.00,VWS V12.07,2013-07-26 07:04:00,
2013-07-26 02:11:00,68.3,60.8,30.04,SSE,148,0.0,0.0,77,0.00,,SKC,0.00,VWS V12.07,2013-07-26 07:11:00,
2013-07-26 02:17:00,68.3,61.2,30.03,SSE,148,0.0,0.0,78,0.00,,SKC,0.00,VWS V12.07,2013-07-26 07:17:00,
2013-07-26 02:23:00,68.1,61.0,30.03,SSE,148,0.0,0.0,78,0.00,,SKC,0.00,VWS V12.07,2013-07-26 07:23:00,
2013-07-26 02:30:00,68.1,61.0,30.03,SSE,148,0.0,0.0,78,0.00,,SKC,0.00,VWS V12.07,2013-07-26 07:30:00,
2013-07-26 02:37:00,68.3,61.2,30.02,SSE,148,0.0,0.0,78,0.00,,SKC,0.00,VWS V12.07,2013-07-26 07:37:00,
2013-07-26 02:43:00,68.4,60.9,30.02,SE,143,0.0,0.0,77,0.00,,SKC,0.00,VWS V12.07,2013-07-26 07:43:00,
2013-07-26 02:48:00,68.4,60.9,30.02,SE,145,0.0,0.0,77,0.00,,SKC,0.00,VWS V12.07,2013-07-26 07:48:00,
2013-07-26 02:54:00,68.4,60.9,30.02,SE,145,0.0,0.0,77,0.00,,SKC,0.00,VWS V12.07,2013-07-26 07:54:00,
2013-07-26 03:00:00,68.4,60.9,30.01,SSE,158,0.0,0.0,77,0.00,,SKC,0.00,VWS V12.07,2013-07-26 08:00:00,
2013-07-26 03:06:00,68.5,61.4,30.01,SW,218,0.0,1.0,78,0.00,,SKC,0.00,VWS V12.07,2013-07-26 08:06:00,
2013-07-26 03:13:00,68.4,61.6,30.01,SSW,194,0.0,2.0,79,0.00,,SKC,0.00,VWS V12.07,2013-07-26 08:13:00,
2013-07-26 03:18:00,68.3,61.5,30.01,SSE,156,1.0,2.0,79,0.00,,SKC,0.00,VWS V12.07,2013-07-26 08:18:00,
2013-07-26 03:24:00,68.4,61.3,30.00,South,176,2.0,3.0,78,0.00,,SKC,0.00,VWS V12.07,2013-07-26 08:24:00,
2013-07-26 03:32:00,68.5,61.4,30.01,SE,142,0.0,3.0,78,0.00,,SKC,0.00,VWS V12.07,2013-07-26 08:32:00,
2013-07-26 03:38:00,68.5,61.4,30.00,South,180,1.0,3.0,78,0.00,,SKC,0.00,VWS V12.07,2013-07-26 08:38:00,
2013-07-26 03:43:00,68.5,61.7,30.01,SSE,166,0.0,4.0,79,0.00,,SKC,0.00,VWS V12.07,2013-07-26 08:43:00,
2013-07-26 03:49:00,68.5,61.7,30.01,SSE,150,0.0,4.0,79,0.00,,SKC,0.00,VWS V12.07,2013-07-26 08:49:00,
2013-07-26 03:57:00,68.4,62.0,30.01,WNW,293,0.0,4.0,80,0.00,,SKC,0.00,VWS V12.07,2013-07-26 08:57:00,
2013-07-26 04:03:00,68.3,61.9,30.01,WNW,292,0.0,0.0,80,0.00,,SKC,0.00,VWS V12.07,2013-07-26 09:03:00,
2013-07-26 04:10:00,68.1,62.1,30.01,WNW,293,0.0,0.0,81,0.00,,SKC,0.00,VWS V12.07,2013-07-26 09:10:00,
2013-07-26 04:16:00,68.2,61.8,30.01,WNW,292,0.0,0.0,80,0.00,,SKC,0.00,VWS V12.07,2013-07-26 09:16:00,
2013-07-26 04:22:00,68.1,62.1,30.01,WNW,293,0.0,0.0,81,0.00,,SKC,0.00,VWS V12.07,2013-07-26 09:22:00,
2013-07-26 04:28:00,67.9,61.9,30.00,WNW,292,0.0,0.0,81,0.00,,SKC,0.00,VWS V12.07,2013-07-26 09:28:00,
2013-07-26 04:35:00,67.9,61.9,30.00,WNW,293,0.0,0.0,81,0.00,,SKC,0.00,VWS V12.07,2013-07-26 09:35:00,
2013-07-26 04:41:00,67.8,61.8,30.00,WNW,292,0.0,0.0,81,0.00,,SKC,0.00,VWS V12.07,2013-07-26 09:41:00,
2013-07-26 04:47:00,67.7,61.7,30.00,South,176,0.0,0.0,81,0.00,,SKC,0.00,VWS V12.07,2013-07-26 09:47:00,
2013-07-26 04:54:00,67.8,61.4,30.00,South,176,0.0,0.0,80,0.00,,SKC,0.00,VWS V12.07,2013-07-26 09:54:00,
2013-07-26 05:00:00,67.9,61.9,30.00,SSW,203,0.0,0.0,81,0.00,,SKC,0.00,VWS V12.07,2013-07-26 10:00:00,
2013-07-26 05:05:00,67.9,61.9,30.00,SSW,203,0.0,0.0,81,0.00,,SKC,0.00,VWS V12.07,2013-07-26 10:05:00,
2013-07-26 05:12:00,67.8,61.8,30.01,SSW,203,0.0,0.0,81,0.00,,SKC,0.00,VWS V12.07,2013-07-26 10:12:00,
2013-07-26 05:18:00,67.7,62.0,30.01,SSW,203,0.0,0.0,82,0.00,,SKC,0.00,VWS V12.07,2013-07-26 10:18:00,
2013-07-26 05:24:00,67.6,62.3,30.01,SSW,203,0.0,0.0,83,0.00,,SKC,0.00,VWS V12.07,2013-07-26 10:24:00,
2013-07-26 05:30:00,67.5,62.5,30.01,SSW,202,0.0,0.0,84,0.00,,SKC,0.00,VWS V12.07,2013-07-26 10:30:00,
2013-07-26 05:35:00,67.4,62.7,30.01,WSW,241,0.0,1.0,85,0.00,,SKC,0.00,VWS V12.07,2013-07-26 10:35:00,
2013-07-26 05:42:00,67.3,62.6,30.01,SSW,212,0.0,1.0,85,0.00,,SKC,0.00,VWS V12.07,2013-07-26 10:42:00,
2013-07-26 05:49:00,67.2,62.5,30.01,SSW,201,1.0,1.0,85,0.00,,SKC,0.00,VWS V12.07,2013-07-26 10:49:00,
2013-07-26 05:55:00,67.1,62.5,30.01,SSE,153,0.0,3.0,85,0.00,,SKC,0.00,VWS V12.07,2013-07-26 10:55:00,
2013-07-26 06:01:00,66.9,62.6,30.01,SE,139,0.0,0.0,86,0.00,,SKC,0.00,VWS V12.07,2013-07-26 11:01:00,
2013-07-26 06:09:00,66.9,62.6,30.01,SE,136,0.0,2.0,86,0.00,,SKC,0.00,VWS V12.07,2013-07-26 11:09:00,
2013-07-26 06:15:00,66.9,62.6,30.01,SSW,207,0.0,2.0,86,0.00,,SKC,0.00,VWS V12.07,2013-07-26 11:15:00,
2013-07-26 06:22:00,67.0,62.7,30.01,SSE,150,0.0,2.0,86,0.00,,SKC,0.00,VWS V12.07,2013-07-26 11:22:00,
2013-07-26 06:28:00,67.1,62.8,30.02,SSE,158,0.0,2.0,86,0.00,,SKC,0.00,VWS V12.07,2013-07-26 11:28:00,
2013-07-26 06:34:00,67.3,62.6,30.02,SE,134,0.0,3.0,85,0.00,,SKC,0.00,VWS V12.07,2013-07-26 11:34:00,
2013-07-26 06:40:00,67.4,62.7,30.02,SE,134,0.0,3.0,85,0.00,,SKC,0.00,VWS V12.07,2013-07-26 11:40:00,
2013-07-26 06:47:00,67.5,62.8,30.02,South,190,0.0,3.0,85,0.00,,SKC,0.00,VWS V12.07,2013-07-26 11:47:00,
2013-07-26 06:53:00,67.7,62.7,30.01,SE,135,1.0,3.0,84,0.00,,SKC,0.00,VWS V12.07,2013-07-26 11:53:00,
2013-07-26 06:59:00,67.8,62.8,30.01,SSE,150,1.0,3.0,84,0.00,,SKC,0.00,VWS V12.07,2013-07-26 11:59:00,
2013-07-26 07:05:00,68.0,63.0,30.01,South,171,1.0,2.0,84,0.00,,SKC,0.00,VWS V12.07,2013-07-26 12:05:00,
2013-07-26 07:12:00,68.1,63.1,30.01,South,190,0.0,3.0,84,0.00,,SKC,0.00,VWS V12.07,2013-07-26 12:12:00,
2013-07-26 07:18:00,68.2,63.2,30.01,SE,129,0.0,3.0,84,0.00,,SKC,0.00,VWS V12.07,2013-07-26 12:18:00,
2013-07-26 07:25:00,68.3,63.3,30.01,SSE,148,0.0,3.0,84,0.00,,SKC,0.00,VWS V12.07,2013-07-26 12:25:00,
2013-07-26 07:32:00,68.4,63.4,30.01,SE,138,1.0,2.0,84,0.00,,SKC,0.00,VWS V12.07,2013-07-26 12:32:00,
2013-07-26 07:39:00,68.5,63.1,30.01,SE,140,2.0,3.0,83,0.00,,SKC,0.00,VWS V12.07,2013-07-26 12:39:00,
2013-07-26 07:45:00,68.6,63.6,30.01,South,170,0.0,3.0,84,0.00,,SKC,0.00,VWS V12.07,2013-07-26 12:45:00,
2013-07-26 07:52:00,68.5,63.5,30.01,SSE,148,0.0,3.0,84,0.00,,SKC,0.00,VWS V12.07,2013-07-26 12:52:00,
2013-07-26 07:58:00,68.4,63.4,30.01,SSE,156,0.0,3.0,84,0.00,,SKC,0.00,VWS V12.07,2013-07-26 12:58:00,
2013-07-26 08:05:00,68.3,63.3,30.01,SW,215,0.0,3.0,84,0.00,,SKC,0.00,VWS V12.07,2013-07-26 13:05:00,
2013-07-26 08:12:00,68.4,63.7,30.01,SSE,163,0.0,4.0,85,0.00,,SKC,0.00,VWS V12.07,2013-07-26 13:12:00,
2013-07-26 08:18:00,68.4,63.7,30.02,SSE,153,0.0,4.0,85,0.00,,SKC,0.00,VWS V12.07,2013-07-26 13:18:00,
2013-07-26 08:23:00,68.5,63.8,30.02,SSE,153,0.0,4.0,85,0.00,,SKC,0.00,VWS V12.07,2013-07-26 13:23:00,
2013-07-26 08:30:00,68.6,63.6,30.02,SSW,195,0.0,4.0,84,0.00,,SKC,0.00,VWS V12.07,2013-07-26 13:30:00,
2013-07-26 08:36:00,68.8,63.8,30.02,South,171,0.0,1.0,84,0.00,,SKC,0.00,VWS V12.07,2013-07-26 13:36:00,
2013-07-26 08:42:00,69.0,64.0,30.02,West,267,2.0,3.0,84,0.00,,SKC,0.00,VWS V12.07,2013-07-26 13:42:00,
2013-07-26 08:48:00,69.2,64.2,30.02,WSW,248,0.0,3.0,84,0.00,,SKC,0.00,VWS V12.07,2013-07-26 13:48:00,
2013-07-26 08:55:00,69.4,64.4,30.03,SSE,163,0.0,3.0,84,0.00,,SKC,0.00,VWS V12.07,2013-07-26 13:55:00,
2013-07-26 09:02:00,69.5,64.5,30.03,SW,233,0.0,0.0,84,0.00,,SKC,0.00,VWS V12.07,2013-07-26 14:02:00,
2013-07-26 09:09:00,69.6,64.6,30.02,SW,233,0.0,0.0,84,0.00,,SKC,0.00,VWS V12.07,2013-07-26 14:09:00,
2013-07-26 09:16:00,69.6,64.6,30.02,SW,235,0.0,0.0,84,0.00,,SKC,0.00,VWS V12.07,2013-07-26 14:16:00,
2013-07-26 09:22:00,69.7,64.7,30.02,SW,235,0.0,0.0,84,0.00,,SKC,0.00,VWS V12.07,2013-07-26 14:22:00,
2013-07-26 09:41:00,70.5,65.8,30.02,SW,235,0.0,0.0,85,0.00,,SKC,0.00,VWS V12.07,2013-07-26 14:41:00,
2013-07-26 09:47:00,70.9,65.5,30.02,SW,224,0.0,0.0,83,0.00,,SKC,0.00,VWS V12.07,2013-07-26 14:47:00,
2013-07-26 09:53:00,71.2,65.8,30.02,WSW,250,0.0,0.0,83,0.00,,SKC,0.00,VWS V12.07,2013-07-26 14:53:00,
2013-07-26 09:59:00,71.6,66.2,30.01,NW,318,0.0,0.0,83,0.00,,SKC,0.00,VWS V12.07,2013-07-26 14:59:00,
2013-07-26 10:04:00,72.2,66.1,30.01,West,272,0.0,2.0,81,0.00,,SKC,0.00,VWS V12.07,2013-07-26 15:04:00,
2013-07-26 10:12:00,72.7,66.9,30.01,SW,235,0.0,2.0,82,0.00,,SKC,0.00,VWS V12.07,2013-07-26 15:12:00,
2013-07-26 10:19:00,73.3,66.8,30.01,South,191,0.0,2.0,80,0.00,,SKC,0.00,VWS V12.07,2013-07-26 15:19:00,
2013-07-26 10:25:00,73.7,67.2,30.01,West,262,0.0,2.0,80,0.00,,SKC,0.00,VWS V12.07,2013-07-26 15:25:00,
2013-07-26 10:31:00,73.5,66.6,30.01,NW,309,1.0,2.0,79,0.00,,SKC,0.00,VWS V12.07,2013-07-26 15:31:00,
2013-07-26 10:39:00,73.6,67.4,30.01,WSW,243,0.0,4.0,81,0.00,,SKC,0.00,VWS V12.07,2013-07-26 15:39:00,
2013-07-26 10:45:00,73.7,67.5,30.01,WNW,288,1.0,4.0,81,0.00,,SKC,0.00,VWS V12.07,2013-07-26 15:45:00,
2013-07-26 10:52:00,73.8,67.2,30.01,SSW,194,0.0,5.0,80,0.00,,SKC,0.00,VWS V12.07,2013-07-26 15:52:00,
2013-07-26 10:59:00,74.3,68.1,30.01,NW,319,1.0,5.0,81,0.00,,SKC,0.00,VWS V12.07,2013-07-26 15:59:00,
2013-07-26 11:05:00,74.6,68.4,30.01,South,190,3.0,6.0,81,0.00,,SKC,0.00,VWS V12.07,2013-07-26 16:05:00,
2013-07-26 11:12:00,75.3,68.7,30.01,WSW,245,2.0,6.0,80,0.00,,SKC,0.00,VWS V12.07,2013-07-26 16:12:00,
2013-07-26 11:19:00,77.0,69.6,30.01,SE,141,2.0,6.0,78,0.00,,SKC,0.00,VWS V12.07,2013-07-26 16:19:00,
2013-07-26 11:25:00,77.0,69.2,30.01,West,260,1.0,7.0,77,0.00,,SKC,0.00,VWS V12.07,2013-07-26 16:25:00,
2013-07-26 11:32:00,76.3,68.6,30.00,West,278,1.0,4.0,77,0.00,,SKC,0.00,VWS V12.07,2013-07-26 16:32:00,
2013-07-26 11:49:00,75.5,68.5,30.01,NNW,327,2.0,9.0,79,0.00,,SKC,0.00,VWS V12.07,2013-07-26 16:49:00,
2013-07-26 11:55:00,74.7,68.1,30.00,WSW,254,0.0,9.0,80,0.00,,SKC,0.00,VWS V12.07,2013-07-26 16:55:00,
2013-07-26 12:02:00,74.2,68.0,30.00,WSW,243,1.0,5.0,81,0.00,,SKC,0.00,VWS V12.07,2013-07-26 17:02:00,
2013-07-26 12:09:00,73.9,67.7,30.00,SW,235,2.0,6.0,81,0.00,,SKC,0.00,VWS V12.07,2013-07-26 17:09:00,
2013-07-26 12:15:00,73.7,67.9,30.00,South,188,2.0,6.0,82,0.00,,SKC,0.00,VWS V12.07,2013-07-26 17:15:00,
2013-07-26 12:22:00,73.9,68.4,30.00,SSW,193,0.0,6.0,83,0.00,,SKC,0.00,VWS V12.07,2013-07-26 17:22:00,
2013-07-26 12:29:00,74.0,68.2,30.00,WNW,300,2.0,7.0,82,0.00,,SKC,0.00,VWS V12.07,2013-07-26 17:29:00,
2013-07-26 12:35:00,74.0,68.5,30.00,North,353,0.0,3.0,83,0.00,,SKC,0.00,VWS V12.07,2013-07-26 17:35:00,
2013-07-26 12:42:00,74.4,68.6,30.00,SE,139,2.0,5.0,82,0.00,,SKC,0.00,VWS V12.07,2013-07-26 17:42:00,
2013-07-26 12:49:00,74.7,68.8,30.00,WNW,285,1.0,5.0,82,0.00,,SKC,0.00,VWS V12.07,2013-07-26 17:49:00,
2013-07-26 12:55:00,74.8,68.9,30.00,NW,315,2.0,5.0,82,0.00,,SKC,0.00,VWS V12.07,2013-07-26 17:55:00,
2013-07-26 13:02:00,74.8,68.6,30.00,WNW,284,1.0,3.0,81,0.00,,SKC,0.00,VWS V12.07,2013-07-26 18:02:00,
2013-07-26 13:09:00,74.6,68.4,30.00,West,273,0.0,7.0,81,0.00,,SKC,0.00,VWS V12.07,2013-07-26 18:09:00,
2013-07-26 13:15:00,74.8,70.0,30.00,West,265,0.0,7.0,85,0.00,,SKC,0.00,VWS V12.07,2013-07-26 18:15:00,
2013-07-26 13:25:00,74.8,69.7,29.99,SW,217,0.0,7.0,84,0.00,,SKC,0.00,VWS V12.07,2013-07-26 18:25:00,
2013-07-26 13:32:00,75.3,69.1,29.99,WNW,288,1.0,3.0,81,0.00,,SKC,0.00,VWS V12.07,2013-07-26 18:32:00,
2013-07-26 13:39:00,75.2,69.7,29.99,NNE,20,0.0,6.0,83,0.00,,SKC,0.00,VWS V12.07,2013-07-26 18:39:00,
2013-07-26 13:45:00,75.4,69.2,29.99,WNW,288,1.0,6.0,81,0.00,,SKC,0.00,VWS V12.07,2013-07-26 18:45:00,
2013-07-26 13:52:00,76.0,69.8,29.99,WNW,290,4.0,8.0,81,0.00,,SKC,0.00,VWS V12.07,2013-07-26 18:52:00,
2013-07-26 13:59:00,76.9,71.0,29.99,WNW,296,3.0,8.0,82,0.00,,SKC,0.00,VWS V12.07,2013-07-26 18:59:00,
2013-07-26 14:05:00,77.7,70.7,29.98,WNW,285,1.0,9.0,79,0.00,,SKC,0.00,VWS V12.07,2013-07-26 19:05:00,
2013-07-26 14:12:00,78.0,71.3,29.98,WSW,256,5.0,9.0,80,0.00,,SKC,0.00,VWS V12.07,2013-07-26 19:12:00,
2013-07-26 14:19:00,77.9,71.2,29.98,NNW,345,3.0,9.0,80,0.00,,SKC,0.00,VWS V12.07,2013-07-26 19:19:00,
2013-07-26 14:25:00,78.2,70.8,29.98,WNW,284,4.0,9.0,78,0.00,,SKC,0.00,VWS V12.07,2013-07-26 19:25:00,
2013-07-26 14:32:00,78.4,71.3,29.98,East,81,2.0,9.0,79,0.00,,SKC,0.00,VWS V12.07,2013-07-26 19:32:00,
2013-07-26 14:39:00,77.8,70.4,29.98,WSW,243,2.0,9.0,78,0.00,,SKC,0.00,VWS V12.07,2013-07-26 19:39:00,
2013-07-26 14:45:00,77.3,70.7,29.97,West,277,1.0,9.0,80,0.00,,SKC,0.00,VWS V12.07,2013-07-26 19:45:00,
2013-07-26 14:52:00,77.4,70.4,29.98,SW,235,2.0,9.0,79,0.00,,SKC,0.00,VWS V12.07,2013-07-26 19:52:00,
2013-07-26 14:59:00,77.6,70.9,29.97,NW,305,1.0,9.0,80,0.00,,SKC,0.00,VWS V12.07,2013-07-26 19:59:00,
2013-07-26 15:05:00,77.7,70.3,29.98,West,277,5.0,8.0,78,0.00,,SKC,0.00,VWS V12.07,2013-07-26 20:05:00,
2013-07-26 15:12:00,77.6,70.6,29.97,SSE,150,2.0,8.0,79,0.00,,SKC,0.00,VWS V12.07,2013-07-26 20:12:00,
2013-07-26 15:19:00,76.6,70.0,29.97,WSW,238,1.0,8.0,80,0.00,,SKC,0.00,VWS V12.07,2013-07-26 20:19:00,
2013-07-26 15:25:00,75.7,70.2,29.97,SW,222,1.0,8.0,83,0.00,,SKC,0.00,VWS V12.07,2013-07-26 20:25:00,
2013-07-26 15:32:00,74.2,70.1,29.98,West,269,1.0,5.0,87,0.02,,SKC,0.02,VWS V12.07,2013-07-26 20:32:00,
2013-07-26 15:39:00,73.6,70.5,29.97,North,6,0.0,5.0,90,0.02,,SKC,0.02,VWS V12.07,2013-07-26 20:39:00,
2013-07-26 15:45:00,73.5,70.7,29.97,WSW,237,1.0,5.0,91,0.02,,SKC,0.02,VWS V12.07,2013-07-26 20:45:00,
2013-07-26 15:52:00,73.6,70.8,29.97,SSW,201,1.0,5.0,91,0.02,,SKC,0.02,VWS V12.07,2013-07-26 20:52:00,
2013-07-26 15:59:00,74.5,71.4,29.97,SW,218,4.0,7.0,90,0.02,,SKC,0.02,VWS V12.07,2013-07-26 20:59:00,
2013-07-26 16:05:00,75.3,71.8,29.96,SSW,204,2.0,7.0,89,0.02,,SKC,0.02,VWS V12.07,2013-07-26 21:05:00,
2013-07-26 16:12:00,76.2,73.1,29.96,WSW,250,1.0,7.0,90,0.02,,SKC,0.02,VWS V12.07,2013-07-26 21:12:00,
2013-07-26 16:19:00,77.1,73.3,29.96,WSW,248,4.0,10.0,88,0.02,,SKC,0.02,VWS V12.07,2013-07-26 21:19:00,
2013-07-26 16:25:00,77.6,73.1,29.95,NNW,328,3.0,10.0,86,0.02,,SKC,0.02,VWS V12.07,2013-07-26 21:25:00,
2013-07-26 16:32:00,78.5,73.3,29.96,SW,225,3.0,9.0,84,0.00,,SKC,0.02,VWS V12.07,2013-07-26 21:32:00,
2013-07-26 16:39:00,78.7,72.8,29.95,SSE,166,4.0,9.0,82,0.00,,SKC,0.02,VWS V12.07,2013-07-26 21:39:00,
2013-07-26 16:45:00,78.5,72.6,29.95,South,191,3.0,9.0,82,0.00,,SKC,0.02,VWS V12.07,2013-07-26 21:45:00,
2013-07-26 16:52:00,78.2,71.9,29.95,NE,40,2.0,10.0,81,0.00,,SKC,0.02,VWS V12.07,2013-07-26 21:52:00,
2013-07-26 16:59:00,77.9,72.0,29.95,NW,315,0.0,10.0,82,0.00,,SKC,0.02,VWS V12.07,2013-07-26 21:59:00,
2013-07-26 17:05:00,77.8,71.9,29.95,ENE,63,2.0,10.0,82,0.00,,SKC,0.02,VWS V12.07,2013-07-26 22:05:00,
2013-07-26 17:12:00,78.3,72.7,29.95,SW,219,1.0,10.0,83,0.00,,SKC,0.02,VWS V12.07,2013-07-26 22:12:00,
2013-07-26 17:19:00,78.1,72.2,29.94,SSW,197,3.0,10.0,82,0.00,,SKC,0.02,VWS V12.07,2013-07-26 22:19:00,
2013-07-26 17:25:00,77.6,71.7,29.94,SW,216,4.0,10.0,82,0.00,,SKC,0.02,VWS V12.07,2013-07-26 22:25:00,
2013-07-26 17:32:00,76.8,70.9,29.94,ESE,117,1.0,6.0,82,0.00,,SKC,0.02,VWS V12.07,2013-07-26 22:32:00,
2013-07-26 17:39:00,76.8,71.6,29.93,West,262,2.0,10.0,84,0.00,,SKC,0.02,VWS V12.07,2013-07-26 22:39:00,
2013-07-26 17:45:00,77.1,71.9,29.93,SSW,195,1.0,10.0,84,0.00,,SKC,0.02,VWS V12.07,2013-07-26 22:45:00,
2013-07-26 17:52:00,78.3,72.0,29.93,NNW,342,2.0,10.0,81,0.00,,SKC,0.02,VWS V12.07,2013-07-26 22:52:00,
2013-07-26 17:59:00,78.1,71.8,29.93,South,191,2.0,10.0,81,0.00,,SKC,0.02,VWS V12.07,2013-07-26 22:59:00,
2013-07-26 18:05:00,77.5,71.2,29.93,NW,326,5.0,5.0,81,0.00,,SKC,0.02,VWS V12.07,2013-07-26 23:05:00,
2013-07-26 18:12:00,77.2,71.3,29.93,West,270,1.0,6.0,82,0.00,,SKC,0.02,VWS V12.07,2013-07-26 23:12:00,
2013-07-26 18:19:00,77.4,71.5,29.92,SW,221,1.0,6.0,82,0.00,,SKC,0.02,VWS V12.07,2013-07-26 23:19:00,
2013-07-26 18:25:00,77.8,71.1,29.93,SE,141,2.0,7.0,80,0.00,,SKC,0.02,VWS V12.07,2013-07-26 23:25:00,
2013-07-26 18:32:00,77.1,70.8,29.93,SW,215,2.0,2.0,81,0.00,,SKC,0.02,VWS V12.07,2013-07-26 23:32:00,
2013-07-26 18:39:00,76.6,71.1,29.93,NNW,342,0.0,8.0,83,0.00,,SKC,0.02,VWS V12.07,2013-07-26 23:39:00,
2013-07-26 18:46:00,76.3,70.8,29.93,WSW,246,0.0,8.0,83,0.00,,SKC,0.02,VWS V12.07,2013-07-26 23:46:00,
2013-07-26 18:54:00,75.6,71.1,29.94,NW,307,6.0,9.0,86,0.01,,SKC,0.03,VWS V12.07,2013-07-26 23:54:00,
2013-07-26 19:00:00,72.5,67.4,29.94,NW,319,6.0,15.0,84,0.03,,SKC,0.05,VWS V12.07,2013-07-27 00:00:00,
2013-07-26 19:07:00,70.0,66.9,29.94,WNW,302,5.0,12.0,90,0.18,,SKC,0.20,VWS V12.07,2013-07-27 00:07:00,
2013-07-26 19:14:00,69.3,67.2,29.93,NNW,340,0.0,12.0,93,0.23,,SKC,0.25,VWS V12.07,2013-07-27 00:14:00,
2013-07-26 19:20:00,69.1,67.3,29.94,West,264,0.0,12.0,94,0.24,,SKC,0.26,VWS V12.07,2013-07-27 00:20:00,
2013-07-26 19:27:00,69.3,67.5,29.95,North,8,16.0,16.0,94,0.52,,SKC,0.55,VWS V12.07,2013-07-27 00:27:00,
2013-07-26 19:34:00,67.9,66.1,29.95,WSW,248,2.0,10.0,94,0.85,,SKC,0.87,VWS V12.07,2013-07-27 00:34:00,
2013-07-26 19:40:00,67.8,66.6,29.94,SSW,203,1.0,10.0,96,0.97,,SKC,0.99,VWS V12.07,2013-07-27 00:40:00,
2013-07-26 19:47:00,68.3,67.1,29.94,NW,307,1.0,10.0,96,0.97,,SKC,0.99,VWS V12.07,2013-07-27 00:47:00,
2013-07-26 19:54:00,68.6,67.4,29.94,WNW,284,0.0,10.0,96,0.97,,SKC,0.99,VWS V12.07,2013-07-27 00:54:00,
2013-07-26 20:00:00,68.5,67.3,29.94,NW,307,1.0,10.0,96,0.97,,SKC,0.99,VWS V12.07,2013-07-27 01:00:00,
2013-07-26 20:07:00,68.4,67.2,29.94,NW,314,1.0,4.0,96,0.93,,SKC,0.99,VWS V12.07,2013-07-27 01:07:00,
2013-07-26 20:14:00,68.5,67.6,29.94,NNW,329,2.0,4.0,97,0.93,,SKC,0.99,VWS V12.07,2013-07-27 01:14:00,
2013-07-26 20:20:00,68.8,67.9,29.94,WNW,302,1.0,5.0,97,0.93,,SKC,0.99,VWS V12.07,2013-07-27 01:20:00,
2013-07-26 20:27:00,69.0,68.1,29.94,NW,325,0.0,5.0,97,0.93,,SKC,0.99,VWS V12.07,2013-07-27 01:27:00,
2013-07-26 20:34:00,69.0,68.1,29.95,North,349,0.0,2.0,97,0.29,,SKC,0.99,VWS V12.07,2013-07-27 01:34:00,
2013-07-26 20:40:00,68.7,67.8,29.95,North,354,2.0,3.0,97,0.29,,SKC,0.99,VWS V12.07,2013-07-27 01:40:00,
2013-07-26 20:47:00,68.5,67.6,29.95,NE,46,0.0,3.0,97,0.29,,SKC,0.99,VWS V12.07,2013-07-27 01:47:00,
2013-07-26 20:54:00,68.3,67.4,29.96,NE,43,0.0,3.0,97,0.29,,SKC,0.99,VWS V12.07,2013-07-27 01:54:00,
2013-07-26 21:00:00,68.3,67.7,29.97,NE,43,0.0,3.0,98,0.29,,SKC,0.99,VWS V12.07,2013-07-27 02:00:00,
2013-07-26 21:07:00,68.3,67.7,29.97,NE,43,0.0,1.0,98,0.00,,SKC,0.99,VWS V12.07,2013-07-27 02:07:00,
2013-07-26 21:14:00,68.1,67.5,29.97,NNE,16,0.0,2.0,98,0.00,,SKC,0.99,VWS V12.07,2013-07-27 02:14:00,
2013-07-26 21:20:00,68.0,67.4,29.98,ENE,61,0.0,2.0,98,0.00,,SKC,0.99,VWS V12.07,2013-07-27 02:20:00,
2013-07-26 21:27:00,67.6,67.0,29.98,ENE,73,2.0,2.0,98,0.00,,SKC,0.99,VWS V12.07,2013-07-27 02:27:00,
2013-07-26 21:34:00,67.1,66.5,29.99,North,8,0.0,2.0,98,0.00,,SKC,0.99,VWS V12.07,2013-07-27 02:34:00,
2013-07-26 21:40:00,66.8,66.2,29.99,NNE,19,0.0,2.0,98,0.00,,SKC,0.99,VWS V12.07,2013-07-27 02:40:00,
2013-07-26 21:47:00,66.5,65.9,29.99,NE,47,0.0,2.0,98,0.00,,SKC,0.99,VWS V12.07,2013-07-27 02:47:00,
2013-07-26 21:54:00,66.0,65.1,29.99,NE,44,0.0,2.0,97,0.00,,SKC,0.99,VWS V12.07,2013-07-27 02:54:00,
2013-07-26 22:00:00,65.5,64.6,30.00,ENE,75,2.0,6.0,97,0.00,,SKC,0.99,VWS V12.07,2013-07-27 03:00:00,
2013-07-26 22:07:00,65.0,64.1,30.00,NE,56,1.0,6.0,97,0.00,,SKC,0.99,VWS V12.07,2013-07-27 03:07:00,
2013-07-26 22:14:00,64.6,63.4,30.00,ESE,111,2.0,9.0,96,0.00,,SKC,0.99,VWS V12.07,2013-07-27 03:14:00,
2013-07-26 22:20:00,64.5,63.0,30.00,NE,56,1.0,9.0,95,0.00,,SKC,0.99,VWS V12.07,2013-07-27 03:20:00,
2013-07-26 22:27:00,64.3,62.8,30.00,NE,40,3.0,9.0,95,0.00,,SKC,0.99,VWS V12.07,2013-07-27 03:27:00,
2013-07-26 22:34:00,64.1,62.6,30.00,NNE,32,2.0,6.0,95,0.00,,SKC,0.99,VWS V12.07,2013-07-27 03:34:00,
2013-07-26 22:40:00,63.9,62.4,30.00,North,357,3.0,6.0,95,0.00,,SKC,0.99,VWS V12.07,2013-07-27 03:40:00,
2013-07-26 22:47:00,63.8,62.0,30.00,North,10,5.0,11.0,94,0.00,,SKC,0.99,VWS V12.07,2013-07-27 03:47:00,
2013-07-26 22:54:00,63.8,61.7,30.01,North,10,4.0,11.0,93,0.00,,SKC,0.99,VWS V12.07,2013-07-27 03:54:00,
2013-07-26 23:00:00,63.7,61.6,30.01,NNE,16,2.0,11.0,93,0.00,,SKC,0.99,VWS V12.07,2013-07-27 04:00:00,
2013-07-26 23:04:00,63.6,61.5,30.01,NNW,342,2.0,4.0,93,0.00,,SKC,0.99,VWS V12.07,2013-07-27 04:04:00,
2013-07-26 23:07:00,63.5,61.4,30.01,NW,307,1.0,8.0,93,0.00,,SKC,0.99,VWS V12.07,2013-07-27 04:07:00,
2013-07-26 23:14:00,63.3,61.2,30.01,NE,36,2.0,8.0,93,0.00,,SKC,0.99,VWS V12.07,2013-07-27 04:14:00,
2013-07-26 23:17:00,63.2,61.2,30.01,North,353,1.0,8.0,93,0.00,,SKC,0.99,VWS V12.07,2013-07-27 04:17:00,
2013-07-26 23:24:00,62.9,60.8,30.01,NNE,20,2.0,8.0,93,0.00,,SKC,0.99,VWS V12.07,2013-07-27 04:24:00,
2013-07-26 23:30:00,62.7,60.7,30.01,North,359,1.0,8.0,93,0.00,,SKC,0.99,VWS V12.07,2013-07-27 04:30:00,
2013-07-26 23:37:00,62.4,60.7,30.01,NNE,15,0.0,3.0,94,0.00,,SKC,0.99,VWS V12.07,2013-07-27 04:37:00,
2013-07-26 23:44:00,62.1,60.4,30.01,NNW,342,0.0,3.0,94,0.00,,SKC,0.99,VWS V12.07,2013-07-27 04:44:00,
2013-07-26 23:50:00,61.8,60.1,30.01,NNW,345,0.0,3.0,94,0.00,,SKC,0.99,VWS V12.07,2013-07-27 04:50:00,
2013-07-26 23:57:00,61.6,60.2,30.01,NNW,345,0.0,3.0,95,0.00,,SKC,0.99,VWS V12.07,2013-07-27 04:57:00,